Location: Frankfurt+am+Main
(50.1100°N, 8.4815°E)
Time: 05:46:13
(UTC+01:00)

ISS - Pass Details

Date: 11 January 2018
Orbit: 402 x 407 km, 51.6° (Epoch: 20 January)

Event Time Altitude Azimuth Distance (km) Brightness Sun altitude
Exits shadow 07:14:07 14° 269° (W) 1,244 -1.9 -10.4°
Maximum altitude 07:16:22 29° 213° (SSW) 785 -2.5 -10.1°
Drops below altitude 10° 07:19:14 10° 152° (SSE) 1,462 -0.2 -9.7°
Sets 07:21:28 0° 140° (SE) 2,320 1.3 -9.3°
